Regional Weather Roundup
Issued by NWS

Home | Current Version | Previous Version | Graphics & Text | Print | Product List | Glossary On
Versions: 1 2 3 4 5 6 7 8 9 10 11 12 13 14 15 16 17 18 19 20 21 22 23 24 25 26 27 28 29 30 31 32 33 34 35 36 37 38 39 40 41 42 43 44 45 46 47 48 49 50
000
ASUS43 KLMK 230910
RWRKY
KENTUCKY REGIONAL WEATHER ROUNDUP
NATIONAL WEATHER SERVICE LOUISVILLE KY
500 AM EDT SUN APR 23 2017

NOTE "FAIR" INDICATES FEW OR NO CLOUDS BELOW 12,000 FEET
WITH NO SIGNIFICANT WEATHER AND/OR OBSTRUCTIONS TO VISIBILITY.

KYZ001>023-026-027-061>063-070>075-231000-
WESTERN AND SOUTH CENTRAL KENTUCKY

CITY           SKY/WX    TMP DP  RH WIND       PRES   REMARKS
PADUCAH        RAIN      50  43  77 N9        29.91F
HENDERSON      PTCLDY    49  39  68 N9        29.96S
OWENSBORO      MOCLDY    49  38  65 NE10      29.93F
HOPKINSVILLE   CLOUDY    49  46  89 N9        29.88S
BOWLING GREEN  CLOUDY    50  47  89 NE7       29.89F
GLASGOW        LGT RAIN  48  45  88 E10G17    29.89R
$$

KYZ024-025-028>034-038-045-046-053-231000-
NORTH CENTRAL KENTUCKY

CITY           SKY/WX    TMP DP  RH WIND       PRES   REMARKS
LOUISVILLE/SDF PTCLDY    48  38  68 NE7       29.97S
LOUISVILLE/LOU PTCLDY    48  37  65 NE8       29.97F
FORT KNOX      PTCLDY    46  38  74 NE10      29.93F
$$

KYZ035>037-039>044-047>052-055>060-089>105-231000-
NORTHEAST KENTUCKY

CITY           SKY/WX    TMP DP  RH WIND       PRES   REMARKS
LEXINGTON      CLOUDY    45  38  76 E9        29.98R
COVINGTON      CLOUDY    45  35  68 NE16      30.03R
FRANKFORT      PTCLDY    46  37  71 NE8       29.96F
$$

KYZ054-064>069-076>088-106>120-231000-
SOUTHEAST KENTUCKY

CITY           SKY/WX    TMP DP  RH WIND       PRES   REMARKS
JACKSON        CLOUDY    47  42  83 VRB3      29.94F
LONDON         LGT RAIN  48  43  82 NE8G17    29.91F
SOMERSET       DRIZZLE   46  46 100 E7        29.90F
MIDDLESBORO    CLOUDY    52  50  93 CALM      29.89S
MONTICELLO     CLOUDY    48  47  96 VRB5      29.90F
$$





USA.gov is the U.S. government's official web portal to all federal, state and local government web resources and services.